Home > Weather > Nottingham > Past weeks

Flag for United Kingdom Past Weather in Nottingham, England, United Kingdom — Yesterday and Last 2 Weeks

Now
68 °F

Broken clouds.


Feels Like: 68 °F
Forecast: 55 / 71 °F
Wind: 10 mph from West

Location: East Midlands

Current Time: Jul 26, 2016 at 1:11:47 PM

Latest Report: Jul 26, 2016 at 12:20 PM


Visibility: N/A

Pressure: 30.12 "Hg

Humidity: 60%

Dew Point: 54 °F

Location of NottinghamLocation

Past Weather in Nottingham — Graph

°F

Nottingham Temperature Yesterday

Maximum temperature yesterday: 68 °F (at 1:20 PM)
Minimum temperature yesterday: 57 °F (at 5:50 AM)
Average temperature yesterday: 62 °F

High & Low Weather Summary for the Past Weeks

 TemperatureHumidityPressure
High88 °F (Jul 19, 3:20 PM)100% (Jul 16, 11:20 AM)30.30 "Hg (Jul 16, 11:20 AM)
Low48 °F (Jul 13, 3:20 AM)35% (Jul 19, 11:50 AM)29.65 "Hg (Jul 11, 12:20 PM)
Average65 °F76%30.06 "Hg
* Reported Jul 11 12:20 PM — Jul 26 12:20 PM, Nottingham, Weather by CustomWeather, © 2016

Note: Actual official high and low records may vary slightly from our data, if they occured in-between our weather recording intervals... More about our weather records

Advertising

Nottingham Weather History for the Previous 24 Hours

Scroll right to see more
 ConditionsComfort  
Time TempWeatherWind HumidityBarometerVisibility
12:20 PM
Tue, Jul 26
68 °FBroken clouds.10 mph60%30.12 "HgN/A
11:20 AM66 °FPartly sunny.9 mph64%30.12 "HgN/A
10:50 AM64 °FPartly sunny.10 mph68%30.15 "HgN/A
10:20 AM64 °FPartly sunny.10 mph73%30.15 "HgN/A
9:50 AM63 °FPartly sunny.12 mph77%30.15 "HgN/A
9:20 AM63 °FPassing clouds.13 mph77%30.12 "HgN/A
8:50 AM61 °FPassing clouds.13 mph83%30.12 "HgN/A
8:20 AM61 °FSunny.13 mph83%30.12 "Hg10 mi
7:50 AM59 °FSunny.12 mph88%30.12 "Hg10 mi
7:20 AM59 °FSunny.12 mph82%30.12 "Hg10 mi
6:50 AM57 °FScattered clouds.10 mph88%30.12 "HgN/A
6:20 AM57 °FPartly sunny.10 mph88%30.12 "HgN/A
5:50 AM57 °FPassing clouds.9 mph88%30.12 "HgN/A
5:20 AM57 °FClear.7 mph88%30.12 "Hg10 mi
4:50 AM57 °FClear.9 mph88%30.12 "Hg10 mi
4:20 AM57 °FClear.6 mph88%30.12 "Hg10 mi
3:50 AM55 °FClear.9 mph88%30.12 "Hg10 mi
3:20 AM55 °FPassing clouds.8 mph94%30.12 "HgN/A
2:50 AM55 °FPassing clouds.9 mph88%30.12 "HgN/A
2:20 AM55 °FClear.7 mph94%30.12 "Hg10 mi
1:50 AM55 °FClear.7 mph94%30.12 "Hg10 mi
1:20 AM55 °FClear.6 mph94%30.12 "Hg10 mi
12:50 AM55 °FClear.8 mph94%30.12 "Hg10 mi
12:20 AM57 °FClear.7 mph88%30.12 "Hg10 mi
11:50 PM
Mon, Jul 25
57 °FClear.7 mph94%30.12 "Hg10 mi
11:20 PM57 °FClear.8 mph94%30.12 "Hg10 mi
10:50 PM57 °FPassing clouds.9 mph94%30.12 "HgN/A
10:20 PM57 °FPassing clouds.9 mph94%30.12 "HgN/A
9:20 PM57 °FScattered clouds.7 mph88%30.12 "HgN/A
8:50 PM59 °FPartly sunny.8 mph88%30.09 "HgN/A
8:20 PM59 °FScattered showers. Broken clouds.9 mph88%30.09 "HgN/A
7:50 PM59 °FSprinkles. Broken clouds.10 mph88%30.09 "Hg4 mi
7:20 PM61 °FScattered showers. Partly sunny.12 mph77%30.09 "HgN/A
6:50 PM63 °FScattered showers. Partly sunny.14 mph68%30.09 "HgN/A
6:20 PM64 °FPartly sunny.14 mph64%30.09 "HgN/A
5:50 PM64 °FScattered clouds.17 mph64%30.09 "HgN/A
5:20 PM66 °FScattered clouds.16 mph56%30.07 "HgN/A
4:50 PM68 °FScattered clouds.12 mph53%30.07 "HgN/A
4:20 PM66 °FPartly sunny.10 mph56%30.07 "HgN/A
3:50 PM68 °FPartly sunny.13 mph53%30.09 "HgN/A
3:20 PM68 °FScattered clouds.13 mph53%30.09 "HgN/A
2:50 PM66 °FScattered clouds.10 mph56%30.09 "HgN/A
2:20 PM64 °FScattered clouds.15 mph60%30.09 "HgN/A
1:50 PM66 °FPartly sunny.15 mph60%30.09 "HgN/A
1:20 PM68 °FMore clouds than sun.14 mph53%30.07 "HgN/A
Weather by CustomWeather, © 2016

See weather overviewHow to use our weather pages